Regional Weather Roundup
Issued by NWS Midland/Odessa, TX

Skip options and go directly to product.
Home | Oldest Version | Previous Version | Current Version | All | Text Only | Save Text | Print | Product List | Glossary Off

Skip product version selection by date and time.   

227
ASUS44 KMAF 040201
RWRMAF
MIDLAND AREA WEATHER ROUNDUP
NATIONAL WEATHER SERVICE MIDLAND TX
900 PM CDT TUE MAY 03 2016

...IN SOUTHWEST TEXAS AND SOUTHEAST NEW MEXICO...

CITY           SKY/WX    TMP DP  RH WIND       PRES   REMARKS
ALPINE         CLEAR     71  38  30 E10       30.16R
ANDREWS        FAIR      66  46  48 NE16G29   30.10R
ARTESIA        CLEAR     68  36  30 NE8       30.12R
BIG SPRING     CLOUDY    63  48  59 NE13      30.12R
CARLSBAD       CLEAR     73  34  23 N12       30.08R
DRYDEN           N/A     74  47  38 SE8       30.03R
FORT STOCKTON  CLEAR     71  36  27 E6        30.05R
GUAD PASS      NOT AVBL
HOBBS            N/A     68  34  28 N10       30.13R
MARFA          CLEAR     68  35  29 NE16G22   30.13R
MIDLAND AIRPK  CLOUDY    74  41  30 NE13      30.07R
MIDLAND INTL   PTCLDY    73  41  31 NE14      30.07R
ODESSA         CLOUDY    73  39  29 NE12      30.08R
PECOS          CLEAR     78  32  19 NE7       30.02R
PRESIDIO       FAIR      83  35  17 CALM      29.94R
SEMINOLE       CLEAR     63  45  51 E6        30.13R
SNYDER           N/A     60  52  74 E8        30.11R
WINK           PTCLDY    75  36  24 NE15G21   30.04R
$$
...OTHER STATIONS IN TEXAS...

CITY           SKY/WX    TMP DP  RH WIND       PRES   REMARKS
ABILENE        MOCLDY    58  55  90 NE8       30.11R
AMARILLO       CLEAR     54  37  52 N8        30.14R
AUSTIN         CLEAR     67  50  54 NE9       30.04R
BROWNSVILLE    CLOUDY    70  61  73 NE7       30.01R
CORPUS CHRISTI PTCLDY    73  56  54 E7        30.00R
DALLAS FTW     CLOUDY    68  44  42 CALM      30.05R
DEL RIO        CLEAR     73  56  54 SE6       30.00R
EL PASO        PTCLDY    77  25  14 NE9       30.05R
HOUSTON INT    CLEAR     67  51  56 N3        30.01R
LUBBOCK        PTCLDY    58  47  66 SW3       30.11R
SAN ANGELO     CLEAR     66  48  52 E6        30.05R
SAN ANTONIO    CLEAR     67  50  54 E5        30.04R
WACO           CLEAR     62  51  67 NE3       30.06R
WICHITA FALLS  NOT AVBL
$$
...OTHER LOCATIONS IN NEW MEXICO...

CITY           SKY/WX    TMP DP  RH WIND       PRES   REMARKS
ALAMAGORDO     CLEAR     72  28  20 NE9       30.09R
ALBUQUERQUE    PTCLDY    70  25  18 E9        30.18R
CANNON AFB     CLEAR     61  27  27 N9        30.16R
CLOVIS         CLEAR     57  30  35 N6        30.18R
HOLLOMAN AFB   CLEAR     73  25  17 NW7       30.07R
ROSWELL        CLEAR     68  33  27 NE7       30.12R
RUIDOSO          N/A     57  30  35 N3        30.29R
SANTA FE       CLEAR     60  30  32 SE12      30.23R
TRUTH OR CONSE PTCLDY    71  28  20 NE6       30.12R
TUCUMCARI      CLEAR     62  27  26 N9        30.15R
$$

USA.gov is the U.S. government's official web portal to all federal, state and local government web resources and services.